| time (UTC) | temp F | wind direction | speed MPH | gust MPH | rain 1hr in | rain 24hr in | rain mn in | humidity % | barometer mb |
| 20260502190044 | 55 | 342 | 1.0 | 0.0 | 0.00 | 0.00 | 0.00 | 40 | 1016.1 |
| 20260502184549 | 53 | 38 | 1.0 | 0.0 | 0.00 | 0.00 | 0.00 | 40 | 1016.4 |
| 20260502183048 | 54 | 316 | 1.0 | 0.0 | 0.00 | 0.00 | 0.00 | 41 | 1016.6 |
| 20260502181537 | 53 | 341 | 1.0 | 0.0 | 0.00 | 0.00 | 0.00 | 40 | 1016.7 |
| 20260502163059 | 53 | 79 | 1.0 | 0.0 | 0.00 | 0.00 | 0.00 | 40 | 1017.3 |
| 20260502161554 | 52 | 24 | 1.0 | 0.0 | 0.00 | 0.00 | 0.00 | 41 | 1017.6 |
| 20260502151543 | 49 | 342 | 1.0 | 0.0 | 0.00 | 0.00 | 0.00 | 43 | 1017.8 |
| 20260502123048 | 36 | 60 | 0.0 | 0.0 | 0.00 | 0.00 | 0.00 | 100 | 1017.7 |
| 20260502121545 | 34 | 61 | 0.0 | 0.0 | 0.00 | 0.00 | 0.00 | 100 | 1017.6 |
| 20260502114540 | 31 | 61 | 0.0 | 0.0 | 0.00 | 0.00 | 0.00 | 100 | 1017.2 |
| 20260502113032 | 31 | 61 | 0.0 | 0.0 | 0.00 | 0.00 | 0.00 | 100 | 1017.1 |
| 20260502111527 | 31 | 61 | 0.0 | 0.0 | 0.00 | 0.00 | 0.00 | 100 | 1017.0 |
| 20260502110022 | 31 | 61 | 0.0 | 0.0 | 0.00 | 0.00 | 0.00 | 100 | 1016.9 |
| 20260502104522 | 31 | 61 | 0.0 | 0.0 | 0.00 | 0.00 | 0.00 | 100 | 1016.9 |
| 20260502103015 | 31 | 61 | 0.0 | 0.0 | 0.00 | 0.00 | 0.00 | 100 | 1016.9 |
| 20260502101529 | 31 | 61 | 0.0 | 0.0 | 0.00 | 0.00 | 0.00 | 100 | 1016.9 |
| 20260502090105 | 31 | 61 | 0.0 | 0.0 | 0.00 | 0.00 | 0.00 | 100 | 1016.8 |
| 20260502071517 | 32 | 61 | 0.0 | 0.0 | 0.00 | 0.00 | 0.00 | 100 | 1016.8 |
| 20260502070017 | 32 | 61 | 0.0 | 0.0 | 0.00 | 0.00 | 0.00 | 100 | 1016.9 |
| 20260502064508 | 32 | 61 | 0.0 | 0.0 | 0.00 | 0.00 | 0.00 | 100 | 1017.0 |
| 20260502063004 | 33 | 61 | 0.0 | 0.0 | 0.00 | 0.00 | 0.00 | 100 | 1017.1 |
| 20260502061609 | 33 | 61 | 0.0 | 0.0 | 0.00 | 0.00 | 0.00 | 100 | 1017.2 |
| 20260502060057 | 33 | 61 | 0.0 | 0.0 | 0.00 | 0.00 | 0.00 | 100 | 1017.3 |
| 20260502054556 | 33 | 61 | 0.0 | 0.0 | 0.00 | 0.00 | 0.00 | 100 | 1017.3 |
| 20260502053047 | 34 | 61 | 0.0 | 0.0 | 0.00 | 0.00 | 0.00 | 100 | 1017.3 |
| 20260502051601 | 34 | 61 | 0.0 | 0.0 | 0.00 | 0.00 | 0.00 | 100 | 1017.2 |
| 20260502050038 | 34 | 61 | 0.0 | 0.0 | 0.00 | 0.00 | 0.05 | 100 | 1017.2 |
| 20260502044533 | 34 | 61 | 0.0 | 0.0 | 0.00 | 0.00 | 0.05 | 100 | 1017.3 |
| 20260502043029 | 35 | 61 | 0.0 | 0.0 | 0.00 | 0.00 | 0.05 | 100 | 1017.3 |
| 20260502041525 | 35 | 61 | 0.0 | 0.0 | 0.00 | 0.00 | 0.05 | 100 | 1017.1 |
| 20260502040020 | 35 | 61 | 0.0 | 0.0 | 0.00 | 0.00 | 0.05 | 100 | 1017.1 |
| 20260502034523 | 36 | 61 | 0.0 | 0.0 | 0.00 | 0.00 | 0.05 | 100 | 1017.1 |
| 20260502033012 | 36 | 61 | 0.0 | 0.0 | 0.00 | 0.00 | 0.05 | 2 | 1017.0 |
| 20260502031508 | 37 | 61 | 0.0 | 0.0 | 0.00 | 0.00 | 0.05 | 7 | 1016.9 |
| 20260502030003 | 37 | 61 | 0.0 | 0.0 | 0.00 | 0.00 | 0.05 | 11 | 1016.9 |
| 20260502024559 | 38 | 61 | 0.0 | 0.0 | 0.00 | 0.00 | 0.05 | 13 | 1016.8 |
| 20260502023120 | 38 | 61 | 0.0 | 0.0 | 0.00 | 0.00 | 0.05 | 14 | 1016.7 |
| 20260502021550 | 38 | 61 | 0.0 | 0.0 | 0.00 | 0.00 | 0.05 | 18 | 1016.6 |
| 20260502014547 | 39 | 61 | 0.0 | 0.0 | 0.00 | 0.00 | 0.05 | 28 | 1016.3 |
| 20260502013052 | 40 | 72 | 1.0 | 0.0 | 0.00 | 0.00 | 0.05 | 37 | 1016.1 |
| 20260502013006 | 40 | 72 | 1.0 | 0.0 | 0.00 | 0.00 | 0.05 | 37 | 1016.1 |
| 20260502011533 | 41 | 101 | 0.0 | 0.0 | 0.00 | 0.00 | 0.05 | 40 | 1015.9 |
| 20260502010028 | 41 | 101 | 1.0 | 0.0 | 0.00 | 0.00 | 0.05 | 40 | 1015.6 |
| 20260502004524 | 42 | 105 | 1.0 | 0.0 | 0.00 | 0.00 | 0.05 | 39 | 1015.5 |
| 20260502003018 | 43 | 82 | 2.0 | 0.0 | 0.00 | 0.00 | 0.05 | 39 | 1015.6 |
| 20260502001515 | 43 | 81 | 1.0 | 0.0 | 0.00 | 0.00 | 0.05 | 37 | 1015.5 |
| 20260502000010 | 44 | 83 | 2.0 | 0.0 | 0.00 | 0.00 | 0.05 | 38 | 1015.3 |
| 20260501234506 | 45 | 82 | 1.0 | 0.0 | 0.00 | 0.00 | 0.05 | 36 | 1015.3 |
| 20260501233006 | 45 | 76 | 0.0 | 0.0 | 0.00 | 0.00 | 0.05 | 33 | 1014.9 |
| 20260501231558 | 45 | 76 | 0.0 | 0.0 | 0.00 | 0.00 | 0.05 | 32 | 1015.1 |
| 20260501230053 | 45 | 76 | 0.0 | 0.0 | 0.00 | 0.00 | 0.05 | 32 | 1015.2 |
| 20260501224548 | 45 | 76 | 1.0 | 0.0 | 0.00 | 0.00 | 0.05 | 33 | 1015.2 |
| 20260501223045 | 46 | 75 | 1.0 | 0.0 | 0.00 | 0.00 | 0.05 | 31 | 1015.2 |
| 20260501221540 | 46 | 68 | 1.0 | 0.0 | 0.00 | 0.00 | 0.05 | 32 | 1015.1 |
| 20260501220107 | 45 | 51 | 1.0 | 0.0 | 0.00 | 0.00 | 0.05 | 35 | 1015.1 |
| 20260501214535 | 46 | 72 | 1.0 | 0.0 | 0.00 | 0.00 | 0.05 | 37 | 1015.1 |
| 20260501213027 | 46 | 78 | 1.0 | 0.0 | 0.00 | 0.00 | 0.05 | 37 | 1014.9 |
| 20260501211523 | 46 | 79 | 1.0 | 0.0 | 0.00 | 0.00 | 0.05 | 36 | 1014.9 |
| 20260501210018 | 46 | 78 | 1.0 | 0.0 | 0.00 | 0.00 | 0.05 | 38 | 1014.9 |
| 20260501204517 | 47 | 74 | 1.0 | 0.0 | 0.00 | 0.00 | 0.05 | 40 | 1014.9 |
| 20260501203010 | 47 | 84 | 0.0 | 0.0 | 0.00 | 0.00 | 0.05 | 41 | 1014.8 |
| 20260501201506 | 47 | 78 | 1.0 | 0.0 | 0.00 | 0.00 | 0.05 | 42 | 1014.8 |
| 20260501200001 | 47 | 81 | 1.0 | 0.0 | 0.00 | 0.00 | 0.05 | 43 | 1014.8 |
| 20260501194558 | 47 | 80 | 0.0 | 0.0 | 0.00 | 0.00 | 0.05 | 42 | 1014.8 |
| 20260501193052 | 47 | 83 | 1.0 | 0.0 | 0.00 | 0.00 | 0.05 | 46 | 1014.7 |
| 20260501191557 | 48 | 79 | 1.0 | 0.0 | 0.00 | 0.00 | 0.05 | 48 | 1014.6 |